GEFSSE_con_cape1000_294.txt.gz
Probability
3 6 32 45 42 52 55 58 58 58 65 61 58 55 68 71 68 61 58 61 65 68 71 61 65 68 68 58 58 58 58 52 52 61 58 61 61 61 55 48 45 26 39
0 6 45 45 45 55 58 55 68 68 68 65 68 61 65 65 74 71 65 71 68 68 65 65 68 71 65 61 65 58 52 52 55 52 65 58 58 61 52 45 48 42 45
3 10 23 55 55 58 48 61 65 68 65 65 71 68 58 58 65 65 68 71 68 65 61 68 65 65 61 65 71 65 58 55 45 35 45 26 32 55 42 42 48 52 52
0 3 19 48 55 55 61 65 58 61 68 68 71 61 58 55 55 55 55 45 55 58 61 61 58 52 48 68 68 68 52 45 35 32 10 10 13 35 45 45 42 42 39
3 10 32 55 48 61 58 61 58 58 68 71 71 65 65 52 48 52 45 48 45 48 55 52 45 35 45 55 65 65 58 39 32 13 3 13 29 48 45 42 45 35 39
6 6 26 55 48 42 55 55 55 61 61 65 61 61 55 48 55 42 42 42 45 55 48 48 35 35 29 42 52 55 45 23 16 10 6 6 13 39 42 45 42 35 42
3 6 19 45 45 55 42 52 55 58 58 58 61 55 58 55 52 42 45 39 45 45 42 45 35 35 29 29 39 39 39 26 13 10 13 6 16 48 45 45 39 42 39
10 19 23 45 39 42 48 52 61 58 61 58 58 58 58 58 55 55 48 39 42 42 42 39 26 35 39 39 35 35 32 26 6 3 10 13 29 42 32 35 42 39 32
16 19 19 23 29 35 45 55 68 74 74 61 68 61 68 61 52 48 45 55 42 42 45 35 32 23 39 45 29 26 35 29 13 10 6 16 26 35 29 35 23 26 32
16 19 23 19 19 29 39 61 68 68 71 61 71 68 68 68 48 55 52 45 45 48 35 29 29 35 23 23 32 29 29 23 13 13 16 19 35 29 35 29 32 29 32
13 19 23 26 29 32 26 23 45 55 61 61 68 65 65 48 39 42 39 42 35 32 23 26 26 26 26 23 26 32 26 29 13 10 16 19 29 32 29 26 26 29 32
10 16 16 26 29 29 23 42 42 35 58 58 68 65 65 61 45 29 42 45 39 26 23 16 23 19 13 10 13 23 19 10 6 10 23 23 23 29 26 29 32 29 35
16 13 19 26 32 32 39 39 39 52 58 52 61 58 71 61 58 39 39 39 42 19 19 23 16 16 10 19 19 13 10 10 23 16 23 19 26 35 39 39 39 32 32
16 19 19 26 29 32 42 29 39 39 48 48 55 48 58 61 71 61 65 29 39 39 32 29 32 23 23 26 16 23 19 23 32 23 48 29 32 32 39 39 39 32 35
16 23 23 32 42 45 55 48 32 45 29 42 58 55 52 48 52 45 61 52 42 29 23 39 26 29 39 32 26 19 19 19 35 26 42 35 39 35 35 32 35 35 35
13 19 26 29 48 52 58 58 58 39 65 29 42 45 55 45 52 42 39 48 35 35 35 39 32 26 29 29 10 13 16 16 23 23 32 32 35 32 29 29 29 26 32
13 26 42 39 48 55 45 42 48 42 45 45 45 55 52 42 52 52 42 45 35 35 42 39 32 39 26 16 13 10 19 23 16 26 23 42 32 16 26 26 32 32 29
16 39 45 19 42 55 58 58 45 52 45 48 48 45 55 48 52 58 45 35 39 26 39 23 26 26 26 29 26 16 19 32 19 23 29 32 39 29 32 29 32 32 26
26 39 42 45 48 55 58 58 55 58 58 55 55 48 52 48 45 52 52 45 45 32 32 16 23 23 23 26 16 23 29 32 35 16 23 23 29 26 39 39 29 29 26
39 52 52 55 55 52 48 61 61 55 52 52 48 55 48 45 45 45 42 52 39 42 45 48 35 35 35 32 19 19 32 29 26 19 16 13 32 19 16 26 32 32 29
35 52 52 55 58 61 55 42 52 48 48 48 45 48 48 45 48 48 39 55 52 45 48 42 39 35 32 35 32 29 26 19 26 26 19 16 16 13 26 32 35 29 29
39 48 58 61 58 58 58 61 68 55 42 48 48 48 52 52 52 29 48 42 55 52 52 48 48 39 35 32 32 35 19 29 35 23 23 26 19 26 26 19 29 35 32
35 52 45 61 65 61 61 45 52 65 61 48 61 68 55 52 48 52 55 52 55 42 39 48 42 42 39 42 42 35 26 23 29 29 35 32 35 26 32 26 23 29 32
32 45 58 61 68 68 65 58 42 61 52 48 58 58 61 55 55 55 55 52 42 42 52 35 39 39 42 39 32 35 29 29 29 32 26 32 35 35 39 16 19 29 26
26 39 55 58 68 68 68 65 65 55 58 58 58 65 61 65 65 58 58 55 52 45 48 45 48 45 35 42 35 29 32 42 32 39 23 32 29 32 29 26 26 26 29
26 45 52 58 61 61 65 65 65 58 61 58 61 52 55 58 65 65 65 61 52 52 55 58 55 52 52 52 48 45 52 35 39 29 32 32 26 26 23 26 29 29 26

GEFSSE_con_cape1000_300.txt.gz
Probability
16 26 55 61 68 61 58 65 71 68 71 68 71 65 61 58 58 65 61 65 61 71 68 55 48 61 65 61 65 58 55 58 61 52 52 42 52 52 52 55 52 29 61
13 23 52 58 58 61 65 68 68 65 68 68 71 61 58 55 55 61 74 68 61 65 65 58 68 61 68 61 61 48 58 55 55 55 45 42 42 45 48 42 42 48 52
13 26 42 65 55 55 58 68 65 65 68 71 65 61 58 55 58 65 74 68 71 65 65 61 61 61 58 61 58 58 55 48 52 48 48 19 19 48 48 48 45 52 61
16 19 35 61 61 61 55 65 65 68 65 68 58 52 52 48 58 61 68 68 71 71 65 61 48 52 48 52 48 52 42 39 39 45 32 16 13 48 55 52 45 45 52
19 26 52 58 58 55 48 55 61 61 58 68 61 61 48 45 52 45 55 58 58 58 48 52 45 52 48 55 45 52 39 42 39 35 19 16 19 42 45 48 45 52 45
16 23 39 58 58 45 45 52 58 71 65 65 58 61 52 45 39 42 42 55 48 52 48 52 52 48 42 45 45 52 42 32 32 13 13 16 19 39 42 39 45 42 52
10 13 23 58 52 55 55 48 58 65 65 58 55 42 48 45 42 39 45 45 35 42 39 42 42 48 52 39 45 45 52 42 19 6 16 16 29 52 52 42 39 45 45
6 6 29 61 61 65 61 48 52 52 58 61 55 55 48 52 48 42 42 35 42 39 42 35 29 39 39 48 52 55 58 48 19 3 6 13 39 58 48 45 42 45 39
10 10 16 32 48 74 65 58 52 52 58 55 61 58 58 52 39 48 48 48 45 39 39 39 32 42 45 45 48 52 55 58 19 13 3 13 42 48 42 42 39 35 39
13 13 26 19 29 32 52 68 58 58 65 65 65 71 65 61 52 58 48 48 45 42 39 39 39 42 52 45 48 52 52 45 16 0 6 13 52 39 35 35 32 32 29
16 13 13 19 26 29 26 35 55 65 68 65 68 68 68 48 39 55 45 55 42 39 42 35 52 48 52 52 58 65 52 19 13 3 6 26 48 35 32 29 32 26 23
16 13 13 23 39 35 26 42 48 29 55 68 71 71 74 68 61 29 52 74 61 52 39 42 58 48 39 16 23 48 13 16 13 10 6 35 45 39 39 29 32 35 32
16 26 23 35 39 39 48 45 48 55 71 61 71 68 77 71 52 48 52 58 48 42 35 39 48 26 29 42 29 23 29 23 16 3 16 45 45 42 39 39 35 35 26
26 23 29 39 48 55 61 55 48 45 58 55 74 74 74 74 71 65 68 61 55 52 58 48 55 52 52 39 29 29 26 26 32 26 26 55 52 45 45 42 39 32 29
29 26 39 55 65 65 74 71 61 68 61 52 84 71 71 81 77 71 71 77 61 61 48 65 52 48 39 35 29 32 29 29 35 16 23 39 48 42 39 42 42 39 42
32 32 39 55 58 68 68 77 68 58 74 68 68 68 68 71 74 74 68 71 65 65 61 55 48 52 42 39 39 39 39 32 32 32 23 26 45 45 42 42 39 45 45
48 52 52 45 55 61 61 61 52 61 61 71 77 74 68 68 68 65 74 61 61 58 58 61 55 48 45 35 45 45 39 35 35 32 32 32 26 32 35 29 39 39 42
52 55 58 35 58 61 68 68 65 65 65 71 77 71 65 65 65 74 68 68 65 58 61 58 55 48 45 42 45 39 35 39 35 35 35 39 26 19 26 29 35 26 32
61 65 68 68 58 61 68 68 68 65 68 68 68 68 65 65 61 68 61 68 55 65 68 35 48 55 48 42 39 32 32 35 39 29 32 32 32 32 23 29 42 32 32
58 68 71 71 71 71 71 71 71 68 68 68 65 65 65 65 65 58 74 55 58 65 61 58 52 52 45 45 19 23 29 32 42 32 29 26 26 26 19 19 26 19 35
58 68 74 71 71 71 74 71 68 61 71 65 65 65 65 68 61 65 61 61 58 55 55 52 42 48 42 45 35 23 26 29 35 45 35 26 19 19 26 26 23 19 13
55 65 68 74 71 71 74 74 71 71 71 71 68 71 68 65 61 42 61 61 55 58 55 52 48 52 42 42 39 32 32 35 42 26 45 35 23 26 26 19 26 32 26
52 61 61 71 77 71 71 71 71 71 71 71 71 71 71 65 65 58 55 58 58 58 61 55 55 48 48 42 45 32 35 39 35 45 39 42 35 32 32 32 29 32 32
58 55 68 71 77 74 71 71 71 68 65 68 71 71 71 68 65 58 61 52 61 61 58 52 61 61 55 55 48 48 39 39 39 35 39 39 39 35 29 19 23 29 32
52 58 65 77 74 74 74 74 74 71 65 68 71 71 71 74 68 61 61 61 58 58 61 58 45 52 55 58 55 55 52 45 42 42 35 39 39 35 39 29 29 29 32
39 55 61 74 77 77 74 74 74 71 71 71 71 74 71 71 68 65 65 65 65 65 65 58 58 58 61 58 58 58 48 42 35 29 35 32 29 35 29 35 29 26 23

GEFSSE_con_cape1000_306.txt.gz
Probability
10 32 71 71 74 74 77 74 81 68 74 71 68 68 71 68 71 61 68 65 68 68 68 65 68 71 71 71 71 71 68 65 61 65 58 58 61 61 65 65 61 42 77
13 26 74 74 77 77 77 81 74 77 74 77 68 74 74 71 71 74 81 81 84 68 65 65 71 74 71 71 65 58 58 61 61 58 52 42 48 48 58 58 52 45 71
13 29 55 74 74 77 71 74 77 84 81 74 74 74 74 71 71 81 84 84 71 74 68 61 68 81 68 68 58 55 61 52 55 52 42 19 32 52 58 65 52 61 61
10 16 42 68 68 65 61 68 71 81 81 77 74 71 68 65 71 74 77 77 74 74 65 65 65 61 61 61 52 55 58 55 52 32 6 6 10 45 58 58 58 55 58
10 16 42 65 65 65 61 65 68 77 77 71 74 71 74 71 65 65 68 65 74 71 65 65 55 52 58 55 48 42 52 45 29 23 3 3 10 42 52 48 52 65 61
10 16 39 65 65 65 61 58 68 71 71 65 61 71 68 68 68 71 71 68 68 71 65 61 55 45 55 61 52 39 39 35 23 6 3 3 13 42 55 55 52 48 61
3 13 35 55 65 65 61 58 65 68 68 65 61 65 65 65 68 68 55 65 55 55 61 61 55 48 52 52 48 39 45 35 6 0 0 3 10 42 52 55 52 58 58
10 13 35 58 65 68 65 65 65 65 68 74 71 58 55 61 65 68 55 48 58 58 61 55 45 45 52 52 52 35 39 35 6 0 0 3 19 45 45 52 45 52 58
3 10 23 32 55 65 68 77 71 58 68 68 81 68 61 58 52 68 68 65 58 55 58 48 39 45 52 58 55 52 45 42 6 0 0 6 29 45 39 39 45 52 55
6 3 10 16 23 32 52 68 65 71 74 77 71 71 65 58 58 58 55 68 61 55 58 48 48 55 71 71 65 55 52 32 10 0 0 6 42 48 45 45 35 45 39
6 6 6 10 10 16 19 39 52 68 68 61 65 68 52 29 19 42 42 65 58 52 55 45 52 52 55 55 48 52 42 10 6 0 0 19 35 42 39 35 35 42 39
3 3 3 3 3 3 6 13 16 26 26 29 26 32 23 10 6 16 48 71 71 55 58 55 55 52 39 13 23 35 19 6 0 0 6 26 39 39 32 39 35 35 35
3 3 3 3 3 3 3 6 6 6 13 10 10 10 10 3 3 10 13 32 32 35 16 19 26 10 3 3 0 3 0 0 0 0 6 35 42 42 35 35 32 39 39
3 6 3 10 10 3 3 6 6 3 6 3 3 3 3 0 0 6 6 3 6 3 6 3 3 6 3 0 3 3 0 0 0 0 3 39 45 42 35 35 32 39 35
3 6 10 10 10 10 0 0 6 3 3 6 3 6 3 0 3 3 3 0 0 3 3 3 3 3 0 0 3 0 6 3 0 3 0 32 42 42 42 39 32 29 29
0 6 3 6 10 10 6 10 6 0 0 3 0 6 6 3 3 3 6 3 3 3 3 3 0 0 0 0 3 3 3 0 0 3 0 13 39 45 42 39 39 32 39
0 6 3 13 13 10 10 13 13 6 3 6 10 6 3 3 3 3 6 6 3 3 0 0 0 0 0 0 0 0 0 0 3 3 0 3 10 32 35 35 32 32 29
3 3 3 6 13 13 19 13 13 13 13 13 10 6 3 3 3 6 6 6 6 6 3 3 0 0 0 0 0 0 0 0 6 0 0 0 0 6 23 32 29 29 26
6 3 3 3 10 16 26 16 16 16 16 13 13 10 13 10 6 6 10 6 13 13 3 3 0 0 0 0 0 0 0 3 3 3 3 3 0 0 0 23 35 39 32
3 3 6 6 16 13 16 19 19 23 19 13 13 10 13 13 10 10 10 6 10 3 6 3 3 3 3 0 6 3 0 0 3 0 6 3 3 3 0 0 6 19 39
13 6 6 16 16 23 19 16 16 16 23 16 13 13 19 19 16 13 13 10 6 3 6 3 3 10 6 3 6 3 3 0 3 3 6 6 6 6 3 0 0 0 6
13 16 10 13 23 32 23 23 19 16 16 13 19 13 26 23 19 19 16 10 6 13 6 10 10 3 3 10 10 3 3 0 0 3 3 6 3 6 6 10 3 3 3
16 16 23 19 23 26 26 19 23 26 19 16 16 13 19 19 19 19 13 13 13 10 19 13 13 6 10 10 10 6 3 3 0 0 0 3 3 3 3 10 10 3 3
26 26 29 29 32 26 23 23 23 23 19 19 16 16 16 16 19 16 13 13 13 16 19 19 19 16 13 13 6 10 3 3 3 0 0 0 3 3 3 6 10 6 3
29 32 35 26 29 29 26 26 23 23 19 23 19 19 16 16 16 26 13 19 16 16 19 19 16 16 16 10 10 10 3 3 0 0 0 0 0 0 3 3 3 6 3
26 39 39 35 26 35 32 29 23 26 19 29 23 19 16 16 13 19 13 13 16 16 16 16 16 16 16 10 10 10 10 3 3 0 0 0 0 0 0 0 3 3 6

GEFSSE_con_cape1000_312.txt.gz
Probability
0 13 61 68 55 61 65 68 68 74 68 71 61 68 71 71 74 71 71 65 71 71 65 71 68 65 65 65 65 68 68 55 58 48 48 55 55 55 55 48 48 39 58
3 19 58 65 71 65 65 74 74 74 68 77 74 71 71 71 68 65 71 68 71 68 58 61 61 65 61 71 65 68 61 55 45 48 45 42 58 58 52 45 35 39 61
3 19 42 68 65 68 74 77 84 84 77 71 74 71 71 71 68 68 71 68 68 58 65 58 58 58 61 71 68 61 52 52 48 48 48 26 39 55 52 52 48 48 58
3 13 29 65 71 68 84 84 81 81 84 74 71 77 71 71 71 65 65 65 58 52 55 58 58 58 61 65 48 55 55 48 61 35 16 13 26 52 52 55 61 65 61
3 13 32 58 68 71 77 84 84 81 81 81 77 81 77 74 74 65 55 65 61 52 48 52 58 48 48 58 48 45 42 45 39 13 6 10 26 52 52 45 55 52 55
10 16 35 52 71 71 77 84 81 77 77 74 77 65 68 65 65 58 55 58 61 48 55 52 55 55 55 48 42 42 39 35 19 6 6 10 19 45 48 35 45 48 52
3 16 35 52 68 77 77 81 77 74 74 71 77 74 68 68 71 68 55 55 58 58 48 52 55 52 61 55 58 55 48 29 16 10 3 6 13 35 39 32 52 48 52
6 13 35 45 71 74 74 81 74 74 74 71 68 74 74 71 74 65 55 55 55 55 52 45 52 55 61 58 55 45 35 29 16 6 3 10 16 35 42 42 45 55 48
6 13 23 32 42 52 65 68 74 68 61 68 65 65 68 61 61 65 61 65 55 48 52 42 48 45 55 58 48 42 39 32 10 3 3 3 19 39 39 42 52 52 45
6 10 16 16 26 32 39 55 65 71 61 61 52 55 58 52 48 55 61 68 65 52 48 39 45 52 55 55 52 45 42 35 13 3 0 10 26 29 32 39 45 39 42
3 3 3 6 6 13 19 35 39 45 45 42 39 55 35 16 10 32 32 55 52 52 45 48 55 58 55 48 45 35 39 10 6 3 3 13 29 35 26 35 35 42 42
3 3 3 3 3 6 16 13 16 19 16 16 16 16 13 6 3 10 29 42 52 52 45 45 52 45 29 23 26 29 16 10 10 10 13 23 35 35 35 35 32 35 35
3 3 3 3 3 3 3 6 10 10 10 10 10 10 6 3 3 3 3 10 10 10 6 6 13 13 16 13 6 3 0 3 6 6 13 26 39 35 35 32 32 32 26
0 0 0 3 3 3 3 3 6 6 3 3 6 3 3 3 3 0 0 0 0 0 0 3 0 6 6 6 10 3 3 3 6 6 13 19 45 39 29 29 32 29 29
0 0 0 0 0 0 0 0 3 3 3 3 3 3 3 3 0 0 3 3 3 3 3 0 0 0 0 0 0 3 0 3 6 6 3 13 42 45 35 29 29 29 26
0 0 0 0 0 0 0 0 0 0 0 0 0 0 0 3 0 0 3 0 3 3 0 0 0 0 0 0 0 0 0 0 3 6 3 6 19 35 39 32 32 32 29
0 0 0 0 0 0 0 0 3 0 0 0 0 0 0 0 3 3 3 3 3 3 0 0 0 0 0 0 0 0 0 0 6 3 3 3 10 23 29 32 23 29 35
0 0 0 3 3 0 0 0 3 0 0 0 0 3 3 3 3 3 3 3 3 3 0 3 0 0 0 0 0 0 0 3 3 3 3 6 6 13 19 26 35 39 39
0 0 0 3 3 0 0 0 0 0 3 6 3 3 6 6 6 3 3 3 3 3 0 3 3 0 0 0 3 10 6 6 6 6 6 10 10 10 13 13 26 35 42
0 0 0 3 3 0 0 0 0 3 3 3 3 6 6 6 6 6 3 3 3 3 6 6 3 0 0 3 6 6 3 3 10 6 6 10 10 10 10 6 16 13 16
0 0 0 0 3 0 0 0 0 3 6 0 3 6 10 6 6 10 10 6 3 3 10 6 3 3 6 3 6 6 3 0 3 3 3 3 6 3 3 3 6 10 16
0 0 0 0 0 3 3 0 0 0 6 3 3 6 10 10 13 16 13 10 10 6 10 10 3 3 6 10 10 6 3 3 0 0 3 10 10 10 13 10 10 10 6
0 0 0 0 0 3 3 0 10 6 6 6 6 10 10 6 13 16 13 10 6 10 10 13 10 0 16 10 10 6 3 3 3 3 0 3 6 3 3 3 10 6 3
6 3 0 0 3 3 3 3 10 13 13 13 10 10 10 10 13 13 10 6 10 6 10 10 16 13 6 16 6 6 3 6 3 3 6 3 3 3 3 3 3 6 10
3 3 0 3 3 3 3 6 6 10 13 10 3 6 6 13 13 13 10 10 10 10 10 10 10 10 16 16 13 6 3 3 6 6 0 3 3 3 3 3 3 3 6
6 6 3 6 3 3 10 6 3 6 10 10 10 10 10 16 16 13 6 6 13 6 3 3 3 13 13 10 13 10 3 3 10 3 3 3 3 3 3 0 3 3 3

GEFSSE_con_cape1000_318.txt.gz
Probability
13 26 52 58 61 52 61 68 71 65 65 68 68 71 71 71 77 71 71 71 77 71 68 65 68 68 61 65 61 58 58 55 55 42 42 48 52 48 52 48 52 32 58
16 19 39 58 55 65 68 68 77 81 71 74 74 71 71 71 68 74 68 68 71 65 55 71 68 71 74 65 55 55 55 55 55 52 45 45 48 48 48 39 35 48 55
19 23 35 58 58 71 74 81 77 77 77 71 74 71 71 71 71 65 65 68 65 55 58 52 65 61 68 68 61 58 55 52 45 42 39 29 32 39 42 42 39 52 55
23 26 35 58 74 71 74 77 77 77 68 74 68 68 68 68 65 61 61 58 52 48 55 55 61 58 61 65 61 58 42 45 39 32 13 13 19 29 45 42 42 45 42
26 32 42 61 71 77 77 74 68 74 77 68 65 61 61 65 61 65 61 55 48 48 45 45 65 65 55 58 58 61 52 39 23 19 10 19 29 39 39 42 39 42 52
23 29 42 61 77 81 65 68 71 65 71 71 68 58 52 55 55 52 52 52 45 52 45 48 52 52 42 45 32 42 35 32 23 13 10 13 16 32 32 35 45 48 45
19 23 29 48 61 71 71 65 61 65 61 58 61 68 61 61 55 58 58 45 45 42 42 45 48 42 42 48 42 26 26 26 10 13 13 16 16 39 32 35 35 45 42
16 19 26 52 48 55 68 61 55 58 65 55 61 61 55 61 55 58 55 48 45 35 35 35 26 35 42 35 39 39 32 16 3 0 6 13 29 42 35 39 42 42 42
16 19 19 23 35 55 61 61 52 52 48 55 48 55 58 55 58 58 61 48 42 35 35 35 42 35 39 35 42 42 35 23 3 6 0 13 29 32 39 29 42 42 35
13 23 19 26 26 39 39 45 45 42 42 55 55 42 39 42 42 52 61 52 42 35 32 26 26 39 42 39 39 35 23 29 6 6 13 16 32 39 35 39 35 48 39
16 16 16 19 26 29 23 19 39 45 45 39 39 39 35 35 26 39 29 42 35 23 26 19 26 29 35 42 32 29 19 26 19 13 23 19 32 35 29 35 35 42 45
16 13 19 19 26 23 19 32 45 32 48 45 42 42 48 45 32 13 23 35 26 29 32 29 35 29 29 26 23 29 6 10 13 16 23 26 32 32 29 32 39 39 45
16 13 16 13 23 26 26 29 45 48 52 35 35 35 45 39 23 19 35 39 42 29 29 35 45 35 23 29 19 16 19 6 19 10 13 26 23 23 29 32 35 35 32
13 16 19 23 26 35 32 35 29 35 42 35 42 42 39 39 42 42 48 39 42 45 45 42 42 29 29 29 23 16 16 16 10 19 39 26 32 29 29 32 35 32 32
16 19 29 35 42 39 45 45 32 42 39 39 45 48 48 45 42 39 45 45 35 35 39 48 39 32 35 23 16 19 19 16 10 13 29 26 32 29 29 32 32 32 35
19 29 39 32 45 52 52 58 48 35 45 32 45 42 45 48 45 42 42 39 29 32 35 42 39 39 39 35 32 35 23 19 23 26 19 26 26 29 29 32 32 29 29
19 29 32 23 45 52 45 45 32 32 29 29 39 45 42 42 48 48 42 42 29 39 45 48 35 39 39 26 35 32 35 32 32 29 26 29 23 23 26 26 23 29 32
23 45 48 16 32 58 61 55 42 42 42 32 32 39 39 52 48 55 42 35 45 35 35 42 45 45 39 42 32 39 42 42 39 39 32 29 23 23 23 26 29 26 23
35 52 55 48 45 48 48 65 55 58 58 45 29 35 48 42 52 48 55 61 55 39 42 29 39 45 42 42 32 42 42 39 39 29 26 26 29 29 29 26 29 32 23
35 55 61 55 65 61 45 55 55 58 48 45 45 52 45 42 42 48 42 52 42 48 45 48 61 58 58 55 26 26 35 32 32 32 29 32 32 26 23 26 29 26 26
39 52 61 65 74 74 61 61 61 65 61 55 45 55 48 42 42 55 45 48 58 45 48 45 52 45 48 45 45 35 32 23 29 35 32 35 29 26 26 23 26 29 29
52 58 52 71 71 74 74 81 71 61 48 55 45 61 58 58 55 32 45 42 42 61 52 58 55 52 48 45 39 39 23 32 35 23 29 32 23 29 26 23 26 35 39
45 48 45 68 68 74 77 68 65 68 61 52 58 61 61 55 52 55 45 35 52 42 48 65 58 55 55 48 45 42 35 26 19 23 23 26 26 23 26 26 26 29 32
39 39 52 65 71 74 71 71 65 61 55 52 65 61 61 58 52 52 52 48 48 52 58 48 48 52 55 45 39 39 35 26 29 23 26 19 19 29 23 13 6 23 26
35 32 42 58 61 68 68 68 71 52 52 52 65 68 61 58 55 48 52 55 52 48 52 55 55 55 48 35 32 29 29 39 19 26 23 16 13 16 16 23 16 16 19
39 39 35 55 61 65 61 65 68 68 61 61 61 52 42 48 61 55 52 58 48 45 48 52 48 48 45 45 39 26 23 26 26 26 23 26 26 13 16 19 16 16 19

GEFSSE_con_cape1000_324.txt.gz
Probability
23 39 52 55 68 65 71 71 65 65 71 74 71 68 71 65 68 71 74 74 65 55 61 68 68 58 61 58 52 52 48 48 42 48 35 39 45 45 45 42 32 29 52
23 35 52 55 61 65 68 61 61 68 68 68 65 71 74 68 68 68 71 71 71 68 61 68 65 68 65 61 52 52 42 39 45 45 45 39 35 42 48 45 42 29 48
42 35 48 68 65 68 65 61 68 65 68 68 65 71 74 68 61 68 68 58 68 65 65 65 65 58 65 55 48 48 39 35 42 45 42 19 23 39 48 52 45 48 42
29 32 32 61 71 68 68 65 68 65 68 68 65 61 65 65 61 65 61 52 52 55 55 55 48 55 61 55 55 45 39 39 45 42 29 16 13 29 35 42 39 39 39
26 35 52 71 71 68 74 65 65 65 65 65 65 61 65 61 65 65 52 52 45 48 48 42 48 58 55 48 52 42 39 39 35 35 19 16 13 32 32 39 39 35 42
29 39 48 65 65 65 71 65 65 68 68 65 61 65 65 61 55 58 58 48 48 52 39 48 58 52 45 39 39 39 35 29 29 13 10 3 13 39 26 39 29 39 35
26 32 29 61 71 68 68 65 68 65 61 61 61 61 55 52 58 58 52 55 42 35 32 39 45 42 35 42 45 39 32 32 19 10 6 0 10 48 26 26 23 29 39
26 29 32 65 71 65 58 52 52 52 52 48 55 52 55 55 55 58 48 45 39 32 32 29 32 35 48 48 45 42 42 39 6 6 3 3 35 48 32 35 45 32 35
23 35 32 35 48 65 58 52 48 48 52 52 55 55 58 58 45 52 48 39 35 29 23 29 29 39 42 48 39 42 39 45 23 0 0 10 39 42 32 35 42 39 32
13 26 32 29 42 32 42 55 45 48 48 42 48 52 48 42 45 45 45 45 29 26 19 26 35 42 45 45 45 42 42 48 13 6 13 16 45 39 39 39 35 39 35
16 19 19 29 29 35 29 32 52 42 45 45 39 52 39 35 26 42 32 35 39 39 35 39 42 42 45 39 48 42 39 26 16 13 16 26 48 39 32 35 39 39 29
19 19 23 19 32 32 26 42 45 32 42 48 65 52 55 61 45 32 39 45 39 42 42 45 55 42 39 19 19 35 23 16 19 16 16 39 45 29 32 35 42 35 32
26 23 23 29 32 32 32 39 45 52 68 58 61 61 61 48 45 39 35 35 45 48 42 45 48 32 26 26 26 19 23 16 19 16 19 35 32 32 32 42 35 35 29
26 23 29 42 55 71 74 58 55 52 61 52 61 58 52 68 61 65 52 55 65 61 61 52 45 45 42 32 29 26 19 16 16 16 19 42 42 35 32 35 32 39 32
42 39 45 58 68 71 81 71 52 61 45 48 68 61 61 65 74 68 61 71 68 68 77 52 48 45 52 48 35 26 26 23 23 16 26 39 39 35 32 29 35 29 35
48 48 52 61 74 77 74 71 68 55 68 58 58 55 65 65 65 65 68 74 71 65 65 65 48 55 52 48 42 39 32 29 39 29 19 29 32 35 32 35 32 29 32
61 65 74 58 68 74 68 61 61 48 45 58 65 58 65 68 65 65 68 68 65 65 71 65 65 58 48 42 45 45 39 39 45 42 32 23 26 35 35 39 35 32 29
58 74 74 45 65 81 81 81 58 48 58 61 65 65 61 61 65 65 68 65 71 68 71 71 58 55 48 48 52 52 48 55 48 42 42 29 26 19 26 42 39 42 35
71 74 77 74 77 77 84 81 74 81 71 71 74 65 68 61 61 65 65 68 68 58 61 55 65 65 61 58 52 52 55 58 55 39 35 32 29 26 16 26 42 42 39
55 77 77 81 84 84 81 81 77 77 77 74 68 74 74 71 65 65 65 71 61 58 55 61 68 55 55 55 42 42 48 45 58 45 32 32 26 32 29 23 23 26 35
58 77 84 87 87 87 84 81 87 77 77 77 77 81 77 71 58 71 65 65 68 58 58 61 61 61 58 58 52 48 48 42 42 39 39 32 32 35 35 35 32 19 23
58 74 84 87 84 84 84 87 90 84 77 77 81 77 71 71 61 42 71 55 55 61 55 58 65 58 55 52 58 45 42 42 42 32 45 35 29 35 32 26 39 32 26
48 65 61 84 84 87 87 81 77 81 77 77 74 74 74 68 71 71 65 55 55 58 52 58 65 61 61 52 52 45 42 35 45 55 35 39 32 35 39 29 32 32 29
45 55 65 81 87 87 84 84 77 74 77 74 77 74 68 68 65 61 65 58 58 61 58 58 61 52 58 55 52 55 52 55 39 39 39 42 39 39 39 23 29 26 29
35 48 61 74 84 84 84 84 84 77 74 74 77 68 65 61 65 68 65 68 61 61 61 55 65 58 55 55 42 42 52 55 52 52 32 39 42 45 45 35 26 32 29
29 45 55 68 77 74 71 68 68 77 71 68 71 65 65 68 61 61 68 68 68 61 61 65 65 61 58 55 52 42 45 42 39 35 35 39 39 42 39 39 26 35 32